{"data":{"norad_id":56203,"intl_designator":"2023-054AB","name":"NUSAT-37 (JOAN CLARKE)","alt_names":[],"object_type":"PAYLOAD","status":"ACTIVE","operator":null,"country":"ARGN","launch_date":"2023-04-15","launch_site_code":"AFWTR","launch_vehicle":null,"mission":null,"orbit_class":"UNKNOWN","rcs_meters":null,"size_class":null,"mass_kg":null,"dimensions":null,"purposes":[],"wikipedia_slug":null,"has_3d_model":false,"image_url":null,"decayed_at":null,"tle_current":{"epoch":"2026-05-25T05:07:50.971296Z","epoch_age_seconds":67312,"freshness":"FRESH","line1":"1 56203U 23054AB  26145.21378439  .00043666  00000+0  64826-3 0  9998","line2":"2 56203  97.2663  51.8968 0006487  24.3667 335.7893 15.55061671175076","mean_motion":15.55061671,"eccentricity":0.0006487,"inclination_deg":97.2663,"raan_deg":51.8968,"arg_perigee_deg":24.3667,"mean_anomaly_deg":335.7893,"bstar":0.00064826,"rev_number":17507,"period_min":92.600829076701,"perigee_km":397.57510771499,"apogee_km":406.37162290294,"semimajor_km":6780.110365309,"source":"CELESTRAK","updated_at":"2026-05-25T13:37:59.399556Z"}}}